Showing default

ANGELS, 44876

Orbit data source: Space-Track

ANGELS, 44876 is a payload satellite owned by CNES (FR) in SSO that was launched on Wed, 18 Dec 2019 UTC via a SOYUZ-ST-A launch vehicle from the French Guiana (FRGUI). Payload-class satellites include a variety of spacecraft equipped with specific instruments for various scientific and technological missions. These include communications satellites like Starlink; space stations such as the ISS; scientific satellites like the Hubble; Earth observation satellites from companies like Planet Labs, Umbra, and HawkEye 360; GPS; miniature CubeSats for education and research; and military/defense satellites.

Loading next visibility...
Identifier
44876, 2019-092D
Orbit
SSO
Country
Flag of FRFR
Related business
Manufacturer
Hemeria
Mission
Non-operational Civil Communications
Bus & Motor
CUBESAT 12U, Unknown motor
Mass
27 kg wet, 27 kg dry
Launch date (UTC)
2019-12-18 (6 years ago)
Launch vehicle
SOYUZ-ST-A
Launch site
French Guiana (FRGUI)
Object type
Payload
Rocket body
Debris
Shape & HBR
Box + 2 Pan, 1.0 m
Radar Cross Section
0.126 m², Medium (>0.1 m² and < 1m²)

Expand to show TLE details & history
Last TLE update: 10 hours ago

TLE from 10 hours ago
0 ANGELS
1 44876U 19092D   26035.57807144  .00111449  00000-0  88899-3 0  9997
2 44876  97.4264 248.2856 0003897 346.6824  13.4335 15.70799421341415
Epoch: 2026-02-04T13:52Z
TLE epoch observation values (Epoch: 2026-02-04T13:52:25.372Z)
Latitude
-0.00002°
Longitude
-94.56276°
Altitude
357.216 km
Speed
7.696 km/s
True Right ascension
16h 33m 08s
True Declination
0° 00' 00"
Sunlit
Object was in daylight at epoch
Visualization orbit readout
Latitude
Unknown
Longitude
Unknown
Altitude
Unknown
Speed
Unknown
Apparent Right ascension
Unknown
Apparent Declination
Unknown
Sunlit
N/A
Visualization observer readout
Local Sidereal Time
01:51:58
Azimuth
Unknown
Elevation
Unknown
Doppler factor
Unknown
Orbital elements
Apogee altitude
356.134 km
Perigee altitude
350.887 km
Semi-major axis
6,731.647 km
Eccentricity
0.00039
Inclination
97.4264°
RAAN
248.2856°
Arg. of periapsis
346.6824°
True anomaly
13.44388°
Mean anomaly
13.4335°
Eccentric anomaly
13.43869°
Mean motion
3.92972 °/min
Orbital period
91.61 mins
BSTAR
0.00088899
Loading maneuver chart data...
Computing Atmospheric mass density...
Loading historical data...
Loading historical data...
Loading historical data...
Loading historical data...
Loading historical data...
Loading historical data...
Loading historical data...

Documentation

Showing up to 5 results
|